Campo, CA

2:21 PM PST on December 11, 2019 (GMT -0800)
Campo

Weather History for KCZZ - August, 2019

Change the Weather History Date:

Saturday, August 3, 2019

  Actual Average Record
Temperature  
Mean Temperature 77 °F 74 °F  
Max Temperature 97 °F 95 °F 106 °F (1998)
Min Temperature 57 °F 54 °F 35 °F (1956)
Degree Days  
Heating Degree Days 0 0  
Month to date heating degree days 0 0  
Since 1 June heating degree days 42 63  
Since 1 July heating degree days 6 7  
Cooling Degree Days 12 9  
Month to date cooling degree days 38 27  
Year to date cooling degree days 366 399  
Since 1 June cooling degree days 364 369  
Growing Degree Days 27 (Base 50)    
Moisture  
Dew Point 42 °F    
Average Humidity 32    
Maximum Humidity 52    
Minimum Humidity 11    
Precipitation  
Precipitation 0.00 in 0.02 in 0.07 in (1997)
Month to date precipitation 0.00 0.06  
Year to date precipitation 12.82 10.53  
Sea Level Pressure  
Sea Level Pressure 29.86 in    
Wind  
Wind Speed 8 mph (SSE)    
Max Wind Speed 20 mph    
Max Gust Speed 26 mph    
T = Trace of Precipitation, MM = Missing Value Source: NWS Daily Summary

Daily Weather History Graph

Daily Weather History Graph

Search for Another Location

Airport or City:

Astronomy

Aug. 03, 2019 Rise Set
Actual Time 6:01 AM PDT 7:42 PM PDT
Civil Twilight 5:34 AM PDT 8:09 PM PDT
Nautical Twilight 5:02 AM PDT 8:41 PM PDT
Astronomical Twilight 4:28 AM PDT 9:14 PM PDT
Moon 8:52 AM PDT (8/3) 10:00 PM PDT (8/3)
Length of Visible Light 14h 34m
Length of Day
13h 41m
Waxing Crescent, 10% of the Moon is Illuminated
Aug 3
Waxing Crescent
Aug 7
First Quarter
Aug 15
Full
Aug 23
Last Quarter
Aug 30
New

Hourly Weather History & Observations

Time (PDT) Temp. Dew Point Humidity Pressure Visibility Wind Dir Wind Speed Gust Speed Precip Events Conditions
12:52 AM 63.0 °F 41.0 °F 45% 29.88 in - NNE 4.6 mph - N/A   Unknown
1:52 AM 64.0 °F 39.9 °F 41% 29.88 in - NNE 4.6 mph - N/A   Unknown
2:52 AM 61.0 °F 39.0 °F 44% 29.87 in - NE 5.8 mph - N/A   Unknown
3:52 AM 61.0 °F 37.0 °F 41% 29.87 in - NE 5.8 mph - N/A   Unknown
4:52 AM 57.9 °F 36.0 °F 44% 29.87 in - NE 6.9 mph - N/A   Unknown
5:52 AM 57.9 °F 37.0 °F 46% 29.88 in - ENE 6.9 mph - N/A   Unknown
6:52 AM 62.1 °F 36.0 °F 38% 29.88 in - ENE 5.8 mph - N/A   Unknown
7:52 AM 72.0 °F 37.9 °F 29% 29.88 in - Calm Calm - N/A   Unknown
8:52 AM 86.0 °F 34.0 °F 16% 29.86 in - Calm Calm - N/A   Unknown
9:52 AM 91.0 °F 30.9 °F 12% 29.85 in - WSW 8.1 mph - N/A   Unknown
10:52 AM 93.9 °F 30.9 °F 11% 29.85 in - SSW 6.9 mph - N/A   Unknown
11:52 AM 95.0 °F 37.9 °F 14% 29.84 in - West 10.4 mph - N/A   Unknown
12:52 PM 96.1 °F 37.0 °F 13% 29.84 in - SSW 13.8 mph - N/A   Unknown
1:52 PM 97.0 °F 41.0 °F 14% 29.83 in - SW 15.0 mph 23.0 mph N/A   Unknown
2:52 PM 97.0 °F 44.1 °F 16% 29.82 in - SSW 17.3 mph 23.0 mph N/A   Unknown
3:52 PM 95.0 °F 45.0 °F 18% 29.82 in - WSW 16.1 mph - N/A   Unknown
4:52 PM 93.0 °F 48.0 °F 21% 29.82 in - SSW 15.0 mph - N/A   Unknown
5:52 PM 88.0 °F 50.0 °F 27% 29.83 in - SW 13.8 mph - N/A   Unknown
6:52 PM 82.0 °F 50.0 °F 33% 29.83 in - SSW 12.7 mph - N/A   Unknown
7:52 PM 77.0 °F 50.0 °F 39% 29.86 in - SSW 5.8 mph - N/A   Unknown
8:52 PM 75.9 °F 48.9 °F 38% 29.86 in - Calm Calm - N/A   Unknown
9:52 PM 68.0 °F 48.0 °F 49% 29.88 in - ENE 4.6 mph - N/A   Unknown
10:52 PM 66.0 °F 48.9 °F 54% 29.87 in - NE 4.6 mph - N/A   Unknown
11:52 PM 68.0 °F 48.0 °F 49% 29.87 in - NE 3.5 mph - N/A   Unknown